Location: Góry Miechowskie
(50.3599°N, 20.1803°E)
Time: 12:48:15
(UTC+00:00)

Cosmos 1937 Rocket - Pass Details

Date: 15 June 2024
Orbit: 745 x 777 km, 74.0° (Epoch: 16 July)

Event Time Altitude Azimuth Distance (km) Brightness Sun altitude
Exits shadow 00:58:02 13° 220° (SW) 2,100 5.1 -10.2°
Maximum altitude 01:02:39 59° 298° (WNW) 891 3.8 -9.8°
Drops below altitude 10° 01:07:50 10° 18° (NNE) 2,312 7.4 -9.4°
Sets 01:10:15 0° 23° (NNE) 3,236 8.7 -9.2°
